Voltar ao catálogo

DELTA 2 R/B

AtivoHEO
NORAD 40060·ROCKET BODY·🇺🇸 United States

Lançado Jul 2, 2014 de Vandenberg Space Force Base

Loading…

Próximas Passagens (próximas 24 horas)

TLE

AtualizadoSource: Space-Track

Época: Sep 11, 2026, 12:20 UTC

1 40060U 14035B   26254.51423239  .00000042  00000-0  00000-0 0  9997
2 40060  98.1864 109.2425 3069267  92.9840 302.0896  6.11246003272176

Acompanhe DELTA 2 R/B em tempo real com AllMySat

Download on the App Store